Temperature
17 18 18 18 18 18 18 17 17 18 18 19 19 19 20 21 20 20 20 20 20 21 20 20 20 20 20 19 19 19 18 18 18 18 18 17 17 17 16 16 16 16 15 15
17 18 18 18 19 19 19 18 18 18 19 19 20 20 21 21 20 20 20 20 20 21 21 21 20 20 20 19 19 19 19 18 18 18 17 17 17 17 16 16 16 16 15 15
16 17 18 17 19 19 19 19 19 18 19 19 19 20 21 21 21 21 21 21 21 21 21 21 21 21 20 20 19 19 19 18 18 18 17 17 17 16 16 16 16 15 15 15
15 17 17 18 19 20 19 19 19 19 19 20 20 21 22 22 22 22 21 21 22 21 22 21 21 21 20 20 19 19 19 18 18 18 17 17 17 16 16 16 16 15 15 15
15 16 17 19 20 20 19 19 20 20 20 21 22 21 21 23 23 23 23 23 23 22 22 22 21 21 20 20 19 19 19 18 18 18 17 17 17 16 16 16 16 15 15 15
15 16 17 19 20 21 20 19 20 20 20 21 20 18 20 23 23 23 23 23 23 22 22 21 21 21 20 20 19 19 19 19 18 18 17 17 17 16 16 16 15 15 15 14
15 16 17 19 20 20 19 19 21 21 21 21 20 21 23 23 23 23 23 23 23 22 22 22 21 21 20 20 20 20 19 19 18 18 17 17 17 16 16 15 15 15 14 14
15 16 17 19 20 19 19 21 22 22 23 22 22 23 23 23 23 23 23 23 23 22 22 22 21 21 20 20 20 19 19 18 18 18 17 17 16 16 15 15 15 14 14 14
16 17 19 20 21 22 22 22 22 23 23 23 23 23 23 23 23 23 23 23 22 22 22 21 21 21 21 20 20 19 18 18 18 17 17 16 16 16 15 15 15 14 14 14
16 17 19 21 21 22 22 23 23 23 23 23 23 23 23 23 23 22 22 22 22 22 21 21 21 21 20 20 19 19 18 18 17 17 17 16 16 15 15 15 15 14 14 14
16 18 19 20 21 22 22 23 23 23 23 23 23 23 22 22 22 22 22 22 22 21 21 21 21 20 20 19 19 18 18 18 17 17 17 16 16 16 15 15 15 15 15 14
16 18 17 19 21 22 22 22 22 22 22 22 22 22 22 22 22 22 22 21 21 21 21 20 20 20 19 19 19 18 18 18 17 17 16 16 16 15 15 15 14 14 14 13
19 20 20 20 20 21 21 21 22 22 22 22 22 22 22 21 21 21 21 21 21 21 20 20 20 20 19 19 18 18 18 18 17 17 16 16 16 15 15 14 14 14 13 13
19 20 19 19 20 20 21 21 21 21 21 21 21 21 21 21 20 20 20 20 20 20 20 20 19 19 19 19 18 18 18 17 17 17 16 16 15 15 15 15 14 14 13 13
19 19 19 19 19 20 20 20 20 20 20 20 20 20 20 20 20 20 20 20 20 20 19 19 19 19 18 18 18 18 17 17 17 16 16 16 15 15 14 14 14 14 13 13
18 18 19 19 19 19 19 19 19 19 19 19 19 19 19 19 19 19 19 19 19 19 19 19 18 18 18 18 17 17 17 17 16 16 15 15 15 14 14 14 13 13 13 13
17 17 17 17 18 18 18 18 19 19 19 19 19 19 19 19 18 18 18 18 18 18 18 18 18 18 17 17 17 17 16 16 16 15 15 15 14 14 14 13 13 13 13 12
17 17 17 17 17 17 17 18 18 18 18 18 18 18 18 18 18 18 18 18 18 17 17 17 17 17 17 16 16 16 16 16 15 15 15 14 14 14 13 13 13 12 12 12
16 16 16 16 17 17 17 17 17 17 17 17 17 17 17 17 17 17 17 17 17 17 17 16 16 16 16 16 16 15 15 15 15 15 14 14 13 13 13 12 12 12 11 11
15 15 15 16 16 16 16 16 16 16 17 17 17 17 17 16 16 16 16 16 16 16 16 16 16 16 15 15 15 15 14 14 14 14 13 13 13 12 12 12 11 11 11 10
14 14 15 15 15 15 16 16 16 16 16 16 16 16 16 16 15 15 15 15 15 15 15 15 15 15 15 14 14 14 14 13 13 13 13 12 12 12 11 11 11 10 10 10
13 14 14 14 14 15 15 15 15 15 15 15 15 15 15 15 15 15 15 15 14 14 14 14 14 14 14 14 13 13 13 13 12 12 12 11 11 11 10 10 10 10 9 9
12 13 13 13 13 14 14 14 14 14 14 14 14 14 14 14 14 14 14 14 14 13 13 13 13 13 13 13 12 12 12 12 11 11 11 11 10 10 10 9 9 9 8 8
12 12 12 12 13 13 13 13 13 13 13 13 13 13 13 13 13 13 13 13 13 13 13 12 12 12 12 12 11 11 11 11 10 10 10 10 9 9 9 8 8 8 8 7
11 11 11 12 12 12 12 12 12 12 12 12 12 12 12 12 12 12 12 12 12 12 12 11 11 11 11 11 11 10 10 10 10 9 9 9 8 8 8 8 7 7 7 7
10 10 11 11 11 11 11 11 11 11 11 11 11 11 11 11 11 11 11 11 11 11 10 10 10 10 10 10 10 9 9 9 9 8 8 8 8 7 7 7 7 6 6 6
9 10 10 10 10 10 11 11 11 11 11 11 10 10 10 10 10 10 10 10 10 10 10 9 9 9 9 9 9 8 8 8 8 8 7 7 7 6 6 6 6 5 5 5
Wind_Speed
7 6 4 6 7 8 8 8 8 8 8 10 8 7 7 7 9 12 15 16 17 16 14 13 12 12 11 10 10 10 10 9 9 8 7 7 7 6 6 6 6 6 6 5
4 6 6 7 10 11 10 9 9 8 10 9 8 6 6 8 11 13 16 18 18 17 16 16 15 14 12 11 11 11 11 10 8 8 8 7 7 7 7 6 6 6 6 6
4 4 1 7 11 12 9 8 8 11 11 6 5 7 8 9 12 15 17 18 19 18 18 17 16 15 15 13 11 11 11 10 9 9 8 8 8 8 7 6 6 6 6 6
2 0 6 8 6 8 9 10 10 9 8 9 10 9 9 9 12 14 16 16 17 17 16 15 14 13 13 12 12 12 11 10 10 9 9 8 8 8 6 5 6 6 5 6
4 3 6 8 5 6 6 7 9 11 10 8 7 3 4 7 11 15 16 15 15 16 15 15 15 14 14 13 12 12 12 12 11 11 10 9 9 8 6 6 5 5 5 6
4 4 6 8 6 4 4 4 8 9 10 8 6 4 7 8 9 11 11 12 12 12 11 14 15 15 15 14 14 14 14 12 11 11 11 11 10 7 5 6 6 6 5 4
5 5 7 8 5 4 5 7 6 7 8 8 9 9 8 6 7 9 10 10 12 13 14 14 15 16 16 15 16 14 11 11 10 10 10 10 8 6 6 6 6 6 5 3
5 4 7 5 3 6 7 4 3 4 6 8 8 6 5 5 6 6 8 9 12 13 13 12 15 17 16 16 14 11 11 11 11 10 9 9 8 7 7 7 7 6 5 3
8 8 6 3 5 5 4 4 3 3 4 6 5 4 4 5 6 6 8 10 11 12 12 11 14 16 17 13 12 13 12 11 10 10 8 8 9 8 6 6 6 5 5 4
2 5 4 3 3 2 2 3 3 3 4 5 5 5 4 4 5 5 6 8 8 11 11 11 11 12 12 12 13 14 13 11 10 10 9 8 7 7 7 7 7 6 6 5
3 3 2 4 3 2 0 2 3 3 3 5 6 4 4 4 5 6 5 6 8 10 11 11 11 10 11 13 14 13 13 11 10 9 10 8 7 7 8 7 9 9 7 7
5 6 4 3 3 0 2 2 3 4 3 3 4 5 5 4 4 5 6 6 7 8 9 9 10 10 11 13 14 14 12 11 9 8 8 7 7 4 4 5 8 10 10 9
4 3 3 2 1 2 2 2 2 4 5 4 3 5 6 4 4 5 5 6 7 8 9 9 10 10 11 12 13 14 12 11 9 9 9 8 8 7 5 2 4 7 9 11
2 3 2 0 0 2 2 3 4 5 4 4 4 5 6 5 5 6 5 5 6 8 8 9 9 9 10 11 12 12 11 12 11 9 9 9 8 8 7 7 5 4 5 8
1 2 4 2 2 3 4 5 7 5 4 4 4 6 6 6 6 4 4 5 6 7 7 8 8 7 8 10 11 11 10 8 8 8 8 8 7 7 6 7 5 4 3 3
1 3 4 5 4 3 3 5 5 3 3 3 4 4 4 5 5 5 5 6 8 7 7 7 7 6 8 9 10 8 8 11 10 8 7 7 7 7 6 6 6 5 5 5
3 2 2 2 2 1 1 2 3 3 3 4 3 4 5 6 6 5 3 3 5 5 6 6 6 6 8 9 9 7 7 8 11 8 7 7 7 7 7 6 6 6 6 6
3 4 4 4 3 2 1 2 3 4 3 3 4 5 5 6 5 4 3 4 5 4 3 4 5 6 7 7 7 6 6 6 6 7 6 6 7 6 6 6 7 6 4 4
1 1 2 2 2 2 2 3 3 3 3 4 5 4 4 4 4 4 4 6 6 4 1 2 7 7 6 6 7 5 6 6 5 5 5 7 6 5 5 6 5 5 5 4
2 2 2 2 2 2 2 2 3 2 2 4 5 5 4 3 4 4 5 4 3 3 3 4 5 5 5 6 7 5 6 6 5 5 4 5 5 5 5 5 5 5 4 4
2 2 2 2 2 2 2 3 4 3 2 4 5 5 4 3 3 4 5 3 0 2 4 6 5 4 4 5 7 5 5 5 5 5 5 5 5 4 4 4 4 4 4 4
1 1 1 1 2 2 1 2 3 4 3 3 4 4 5 4 3 3 2 3 2 4 4 4 3 5 6 6 4 4 5 5 5 4 4 4 4 4 4 4 4 4 3 3
1 1 1 1 1 1 2 2 2 3 4 4 4 4 4 3 3 4 2 1 2 5 4 3 5 8 8 6 4 4 4 4 4 4 4 4 4 4 4 4 3 3 3 3
2 2 1 1 3 4 3 2 2 2 3 3 3 3 4 3 2 1 2 3 4 5 4 5 7 8 8 4 4 3 3 3 3 3 3 3 3 3 3 3 3 3 3 3
3 2 2 3 3 2 2 2 3 3 4 3 3 2 2 2 3 3 3 3 5 5 4 5 7 7 5 4 4 3 3 3 4 4 3 3 3 3 3 3 3 3 2 2
2 2 1 1 1 2 2 2 2 2 3 3 2 2 2 3 3 3 3 3 4 5 4 3 4 4 4 4 4 4 3 3 3 3 3 3 3 3 2 2 2 2 2 2
3 3 3 3 3 2 2 2 3 2 3 4 3 2 2 3 3 3 3 3 3 3 3 3 3 3 4 4 4 3 3 2 3 3 2 2 2 2 2 2 2 2 2 1
Wind_Direction
225 230 205 214 224 220 207 199 202 229 239 253 246 234 226 195 178 174 175 177 180 181 180 178 176 175 173 172 169 165 160 163 169 165 154 144 140 136 129 127 130 130 121 113
250 243 232 243 234 226 224 216 219 233 249 245 241 233 218 199 181 180 185 186 187 184 181 181 182 180 176 175 173 165 165 169 165 158 152 149 145 137 129 126 123 120 122 121
249 280 274 255 234 225 225 217 203 221 236 232 227 215 209 200 191 188 190 190 188 187 187 187 185 180 179 178 170 166 168 167 163 159 157 156 149 139 137 136 128 124 127 123
193 123 235 244 227 208 220 232 217 221 228 217 218 216 215 202 195 195 192 190 190 189 188 186 181 176 170 166 167 169 169 169 166 160 158 154 148 148 147 139 136 134 135 132
160 207 268 280 246 199 201 243 228 223 234 230 222 207 251 219 202 200 198 192 190 188 185 180 177 172 163 167 170 172 176 175 172 165 160 158 159 160 153 143 140 141 142 139
160 187 237 253 247 200 150 252 248 214 217 218 166 184 241 228 206 202 196 189 183 177 172 176 177 168 167 172 175 183 183 178 171 167 165 168 168 162 153 149 149 145 142 148
176 213 256 256 252 132 164 236 247 202 201 190 189 209 226 211 195 193 186 181 173 168 174 180 172 167 174 178 188 187 174 166 166 168 168 166 161 155 149 146 142 146 148 156
169 201 249 257 154 181 215 234 225 193 188 183 193 207 203 193 186 176 173 173 169 171 178 173 168 171 178 188 186 165 160 163 167 167 167 162 153 152 149 146 147 154 153 159
186 211 237 228 205 224 199 198 217 190 188 171 168 184 181 175 169 163 163 167 169 170 169 169 172 175 182 184 163 158 161 165 163 161 160 156 157 158 153 153 158 167 168 180
207 258 253 256 247 261 218 201 204 163 143 141 148 154 155 157 154 153 157 160 158 157 163 171 176 178 177 163 159 160 164 165 161 160 159 158 160 164 165 171 174 177 183 190
212 247 332 330 294 252 328 84 94 107 119 132 135 137 144 147 152 155 151 151 155 162 169 173 170 169 162 157 157 161 164 164 165 165 165 167 171 178 180 192 189 186 192 187
211 220 183 242 281 328 100 106 116 115 104 111 130 138 135 138 146 144 140 139 148 156 161 163 161 162 161 160 160 161 163 166 167 166 167 167 165 169 198 191 196 194 188 183
200 206 185 219 321 42 82 91 105 115 129 118 110 121 127 128 130 126 129 141 158 163 160 157 157 161 164 163 162 165 168 169 168 169 170 171 171 174 181 209 205 201 200 197
182 130 98 35 12 40 73 78 85 86 96 113 114 108 112 111 115 125 147 164 155 148 150 152 155 164 166 162 163 166 166 169 170 174 175 177 180 182 180 180 191 223 228 213
18 129 153 149 67 49 62 81 83 77 78 78 95 106 115 122 132 141 138 131 129 133 143 149 157 167 162 160 163 166 166 169 169 169 170 172 173 174 178 183 189 195 200 222
43 71 101 95 77 49 70 94 102 105 103 97 98 111 123 128 126 120 119 127 136 148 155 155 162 165 158 157 158 162 169 170 166 165 165 167 170 175 182 187 193 198 208 211
136 140 125 120 113 93 99 126 136 135 121 117 127 121 109 105 101 102 112 134 147 155 156 158 160 150 149 153 156 162 162 167 165 165 173 177 179 184 188 189 196 206 219 209
172 181 173 168 165 152 130 120 126 125 125 132 124 116 116 124 137 146 138 117 107 99 122 154 149 144 147 149 151 151 156 161 167 172 174 176 179 183 183 188 195 203 215 208
94 127 148 159 157 142 137 141 139 134 127 123 121 127 136 139 142 140 125 117 123 134 183 142 139 141 146 152 147 145 148 151 157 163 167 172 175 178 183 188 194 200 199 196
57 68 82 102 113 127 126 127 124 116 118 121 117 113 110 118 124 123 120 127 164 180 162 134 135 139 147 150 143 145 148 153 157 158 159 168 176 183 185 187 190 193 196 198
59 52 59 70 84 110 137 137 129 126 117 121 128 136 139 134 127 126 124 125 293 120 124 122 126 133 136 140 138 139 145 149 155 161 168 174 175 177 181 184 187 190 195 198
36 50 44 67 81 77 85 120 128 127 117 112 117 124 124 123 117 106 115 161 167 130 122 124 128 128 127 124 132 137 144 152 158 161 166 170 173 177 182 182 185 190 192 194
13 35 40 90 117 94 57 73 111 131 135 139 139 141 145 151 149 143 147 180 138 130 125 129 126 122 119 118 126 135 144 151 158 162 164 166 167 170 176 180 183 184 188 195
18 15 11 79 90 84 69 41 58 105 119 123 127 135 135 128 95 87 142 139 130 124 127 137 129 124 119 122 125 132 138 142 144 146 146 149 154 159 166 171 179 188 193 198
20 24 51 85 94 101 102 74 68 80 90 89 80 77 93 125 141 145 131 131 123 115 118 130 126 123 123 124 127 133 138 143 142 140 140 144 152 159 164 168 175 179 187 199
24 28 51 110 126 132 123 105 104 115 116 104 79 67 73 82 104 116 119 119 118 116 118 124 124 118 117 122 124 127 129 131 127 129 141 149 152 150 153 161 166 180 195 208
31 42 50 47 41 61 89 103 120 138 143 138 128 112 108 106 108 112 112 116 116 115 115 115 116 118 119 121 120 118 118 122 127 130 132 137 142 150 164 173 186 197 205 215
Height
1507 1504 1504 1505 1506 1506 1510 1513 1519 1512 1506 1498 1493 1492 1491 1493 1495 1499 1503 1507 1511 1515 1520 1525 1530 1534 1539 1543 1546 1549 1552 1555 1558 1560 1562 1564 1566 1567 1568 1569 1570 1570 1571 1571
1506 1501 1502 1503 1500 1500 1501 1502 1504 1503 1499 1489 1488 1489 1489 1491 1493 1496 1500 1503 1507 1512 1516 1521 1526 1530 1535 1539 1543 1547 1550 1553 1556 1559 1561 1563 1564 1566 1567 1568 1569 1570 1570 1571
1511 1503 1502 1507 1494 1493 1494 1492 1494 1498 1492 1486 1487 1486 1486 1487 1490 1492 1495 1500 1504 1508 1512 1517 1521 1526 1531 1535 1540 1544 1547 1551 1554 1556 1559 1561 1563 1564 1565 1566 1567 1568 1569 1570
1510 1508 1515 1496 1481 1482 1485 1484 1484 1483 1481 1481 1481 1481 1483 1485 1487 1489 1492 1496 1500 1504 1509 1513 1519 1523 1528 1533 1537 1541 1544 1548 1551 1554 1556 1559 1561 1562 1564 1565 1566 1567 1568 1569
1510 1511 1504 1488 1478 1478 1482 1482 1476 1478 1477 1476 1477 1479 1481 1482 1484 1486 1488 1492 1496 1500 1505 1510 1515 1520 1525 1529 1533 1537 1541 1544 1548 1551 1554 1556 1558 1560 1561 1563 1564 1565 1566 1567
1505 1508 1507 1486 1472 1471 1477 1483 1471 1471 1472 1473 1475 1483 1480 1479 1481 1483 1486 1489 1493 1498 1503 1507 1512 1517 1521 1525 1529 1533 1537 1541 1545 1548 1551 1554 1556 1558 1559 1561 1562 1563 1564 1565
1501 1503 1493 1474 1469 1471 1486 1481 1467 1466 1467 1470 1472 1474 1474 1475 1477 1480 1483 1487 1491 1495 1499 1503 1508 1513 1517 1521 1525 1529 1534 1539 1542 1545 1548 1551 1553 1555 1557 1559 1560 1561 1562 1563
1496 1500 1491 1467 1468 1472 1471 1465 1464 1464 1464 1466 1468 1470 1471 1473 1475 1477 1480 1484 1488 1492 1496 1500 1504 1509 1513 1517 1522 1527 1531 1535 1539 1542 1545 1548 1551 1553 1555 1556 1558 1559 1560 1561
1480 1479 1467 1464 1464 1463 1463 1463 1462 1462 1463 1464 1466 1468 1469 1471 1473 1475 1478 1481 1485 1488 1493 1497 1501 1506 1510 1514 1519 1524 1528 1532 1536 1539 1542 1545 1548 1550 1551 1553 1555 1556 1557 1558
1472 1467 1463 1462 1461 1461 1461 1461 1461 1461 1461 1463 1464 1466 1468 1469 1471 1473 1476 1479 1482 1486 1490 1494 1499 1503 1507 1512 1516 1521 1525 1529 1532 1536 1539 1542 1545 1547 1549 1550 1552 1553 1554 1555
1469 1464 1462 1461 1461 1460 1460 1460 1460 1461 1461 1462 1464 1465 1466 1468 1470 1472 1475 1478 1481 1484 1488 1492 1496 1501 1505 1509 1514 1518 1522 1525 1529 1532 1535 1538 1541 1543 1545 1547 1549 1551 1552 1553
1466 1461 1461 1461 1460 1460 1460 1460 1460 1460 1461 1462 1464 1465 1466 1468 1469 1471 1474 1477 1480 1484 1487 1491 1495 1499 1503 1507 1511 1515 1518 1522 1525 1529 1532 1535 1537 1540 1542 1544 1546 1548 1549 1550
1457 1458 1459 1459 1459 1460 1460 1460 1460 1460 1461 1462 1464 1465 1466 1468 1469 1471 1474 1476 1479 1482 1486 1490 1493 1497 1501 1505 1508 1512 1515 1519 1522 1525 1528 1531 1533 1536 1538 1541 1542 1544 1545 1546
1456 1457 1458 1458 1459 1459 1459 1460 1460 1461 1461 1462 1464 1465 1467 1468 1470 1472 1474 1477 1479 1482 1485 1488 1492 1495 1499 1502 1506 1509 1513 1516 1519 1522 1524 1527 1530 1532 1534 1536 1538 1539 1541 1542
1455 1455 1456 1457 1458 1458 1459 1459 1460 1460 1461 1463 1464 1465 1466 1468 1470 1472 1475 1477 1479 1481 1484 1487 1490 1493 1497 1500 1503 1507 1510 1512 1515 1518 1521 1524 1526 1528 1530 1532 1534 1535 1537 1538
1454 1455 1455 1456 1457 1458 1458 1459 1459 1460 1461 1462 1464 1465 1466 1468 1470 1472 1474 1476 1478 1480 1483 1485 1488 1491 1494 1498 1501 1504 1507 1510 1512 1515 1517 1520 1522 1524 1526 1528 1529 1531 1532 1533
1453 1454 1454 1455 1456 1457 1458 1458 1459 1460 1461 1462 1463 1465 1466 1467 1469 1471 1473 1475 1477 1479 1482 1484 1487 1490 1492 1495 1498 1500 1503 1506 1509 1511 1513 1515 1518 1520 1521 1523 1525 1526 1527 1529
1452 1453 1454 1454 1455 1456 1457 1458 1458 1459 1460 1461 1463 1464 1465 1467 1468 1470 1472 1474 1476 1478 1481 1483 1485 1488 1490 1493 1495 1497 1500 1502 1504 1507 1509 1511 1513 1515 1517 1519 1520 1521 1522 1524
1450 1451 1452 1453 1454 1454 1455 1456 1457 1458 1459 1461 1462 1463 1464 1466 1467 1469 1471 1472 1474 1476 1478 1481 1483 1486 1488 1490 1493 1495 1497 1499 1501 1503 1505 1507 1509 1511 1513 1514 1515 1516 1518 1519
1448 1449 1450 1451 1452 1453 1454 1455 1456 1457 1458 1459 1460 1462 1463 1464 1466 1468 1469 1471 1472 1474 1477 1479 1481 1483 1485 1487 1490 1492 1493 1496 1498 1500 1501 1503 1505 1506 1508 1509 1510 1512 1512 1513
1446 1447 1448 1449 1450 1451 1452 1454 1455 1456 1457 1458 1459 1460 1461 1463 1465 1466 1467 1469 1471 1473 1475 1477 1478 1480 1482 1484 1486 1488 1490 1492 1494 1496 1497 1499 1501 1502 1503 1504 1506 1507 1507 1508
1445 1446 1447 1448 1449 1449 1450 1452 1453 1454 1455 1456 1457 1459 1460 1461 1463 1465 1466 1468 1469 1471 1472 1474 1476 1478 1479 1481 1483 1485 1487 1488 1490 1492 1494 1495 1496 1498 1499 1500 1501 1502 1502 1503
1444 1445 1446 1447 1447 1448 1449 1450 1451 1452 1453 1454 1455 1457 1458 1459 1461 1462 1463 1466 1467 1469 1470 1472 1473 1475 1477 1478 1480 1482 1483 1485 1487 1488 1490 1491 1492 1494 1495 1495 1496 1497 1497 1497
1444 1444 1445 1446 1446 1447 1447 1448 1450 1451 1452 1453 1454 1455 1456 1457 1459 1461 1462 1464 1465 1467 1468 1470 1472 1473 1475 1476 1478 1479 1480 1482 1483 1485 1486 1487 1488 1489 1490 1491 1492 1492 1492 1493
1443 1443 1443 1444 1444 1445 1446 1447 1448 1449 1450 1451 1452 1454 1455 1456 1457 1459 1460 1462 1464 1465 1466 1468 1470 1471 1472 1474 1475 1477 1478 1479 1480 1482 1483 1484 1485 1486 1487 1487 1488 1488 1488 1488
1442 1442 1442 1443 1443 1444 1445 1445 1446 1447 1448 1449 1450 1452 1453 1455 1456 1457 1458 1460 1461 1463 1464 1466 1467 1468 1470 1471 1473 1474 1475 1477 1478 1479 1480 1481 1481 1482 1483 1483 1483 1483 1483 1483
1441 1441 1441 1442 1442 1443 1444 1444 1445 1446 1447 1448 1449 1450 1451 1453 1454 1455 1457 1458 1459 1461 1462 1464 1465 1466 1468 1469 1470 1472 1473 1474 1475 1476 1476 1477 1478 1478 1479 1479 1479 1479 1479 1478